Lubbock, TX

3:24 AM CST on November 13, 2019 (GMT -0600)
Lubbock International

Weather History for KLBB - September, 2019

Change the Weather History Date:

Friday, September 13, 2019

  Actual Average Record
Temperature  
Mean Temperature 72 °F 73 °F  
Max Temperature 82 °F 85 °F 101 °F (1930)
Min Temperature 63 °F 60 °F 43 °F (1959)
Degree Days  
Heating Degree Days 0 0  
Month to date heating degree days 0 0  
Since 1 July heating degree days 0 0  
Cooling Degree Days 8 8  
Month to date cooling degree days 181 126  
Year to date cooling degree days 1899 1652  
Growing Degree Days 22 (Base 50)    
Moisture  
Dew Point 62 °F    
Average Humidity 76    
Maximum Humidity 93    
Minimum Humidity 51    
Precipitation  
Precipitation 0.25 in 0.09 in 0.89 in (2002)
Month to date precipitation 0.51 1.12  
Year to date precipitation 16.10 14.19  
Snow  
Snow 0.00 in 0.00 in 0.00 in (2002)
Month to date snowfall 0.0 0.0  
Since 1 July snowfall 0.0 0.0  
Since 1 September snowfall 0.0 0.0  
Snow Depth 0.00 in    
Sea Level Pressure  
Sea Level Pressure 30.14 in    
Wind  
Wind Speed 11 mph ()    
Max Wind Speed 26 mph    
Max Gust Speed 32 mph    
Visibility 9.4 miles    
Events Rain , Thunderstorm    
T = Trace of Precipitation, MM = Missing Value Source: Averaged Metar Reports

Daily Weather History Graph

Daily Weather History Graph

Search for Another Location

Airport or City:

Astronomy

Sep. 13, 2019 Rise Set
Actual Time 7:29 AM CDT 7:56 PM CDT
Civil Twilight 7:04 AM CDT 8:21 PM CDT
Nautical Twilight 6:34 AM CDT 8:51 PM CDT
Astronomical Twilight 6:04 AM CDT 9:20 PM CDT
Moon 8:07 PM CDT 6:52 AM CDT
Length of Visible Light 13h 17m
Length of Day
12h 27m
Full, 100% of the Moon is Illuminated
Sep 13
Full
Sep 13
Full
Sep 21
Last Quarter
Sep 28
New
Oct 5
First Quarter

Hourly Weather History & Observations

Time (CDT) Temp. Heat Index Dew Point Humidity Pressure Visibility Wind Dir Wind Speed Gust Speed Precip Events Conditions
12:27 AM 72.0 °F - 60.1 °F 66% 30.17 in 10.0 mi NE 15.0 mph - N/A Thunderstorm Thunderstorm
12:53 AM 70.0 °F - 59.0 °F 68% 30.06 in 10.0 mi North 19.6 mph 25.3 mph N/A Thunderstorm Thunderstorm
1:53 AM 66.9 °F - 60.1 °F 79% 30.07 in 10.0 mi NNE 21.9 mph 29.9 mph 0.00 in Thunderstorm Thunderstorm
2:13 AM 68.0 °F - 57.0 °F 68% 30.23 in 10.0 mi NNE 12.7 mph - N/A   Overcast
2:53 AM 64.0 °F - 59.0 °F 84% 30.11 in 5.0 mi SE 6.9 mph - 0.04 in Rain Light Rain
3:53 AM 64.0 °F - 60.1 °F 87% 30.11 in 10.0 mi South 12.7 mph - 0.03 in Rain Light Rain
4:30 AM 64.0 °F - 61.0 °F 90% 30.25 in 6.0 mi South 11.5 mph - 0.05 in Rain Light Rain
4:53 AM 63.0 °F - 61.0 °F 93% 30.11 in 6.0 mi SSE 17.3 mph - 0.07 in Rain Rain
5:53 AM 63.0 °F - 61.0 °F 93% 30.09 in 6.0 mi SSE 18.4 mph - 0.09 in Rain Rain
6:53 AM 64.0 °F - 60.1 °F 87% 30.09 in 10.0 mi South 4.6 mph - 0.02 in   Overcast
7:53 AM 63.0 °F - 61.0 °F 93% 30.12 in 10.0 mi ENE 6.9 mph - N/A   Mostly Cloudy
8:53 AM 64.0 °F - 61.0 °F 90% 30.16 in 10.0 mi East 5.8 mph - N/A   Mostly Cloudy
9:53 AM 68.0 °F - 62.1 °F 81% 30.17 in 10.0 mi East 6.9 mph - N/A   Mostly Cloudy
10:53 AM 70.0 °F - 63.0 °F 78% 30.19 in 10.0 mi ESE 11.5 mph - N/A   Mostly Cloudy
11:42 AM 71.1 °F - 64.0 °F 78% 30.33 in 10.0 mi ESE 13.8 mph - N/A   Mostly Cloudy
11:53 AM 71.1 °F - 64.0 °F 78% 30.21 in 10.0 mi ESE 13.8 mph - N/A   Overcast
12:53 PM 73.9 °F - 64.0 °F 71% 30.19 in 10.0 mi ESE 13.8 mph - N/A   Mostly Cloudy
1:30 PM 75.9 °F - 64.0 °F 67% 30.30 in 10.0 mi ESE 11.5 mph 19.6 mph N/A   Scattered Clouds
1:53 PM 77.0 °F - 64.0 °F 64% 30.16 in 10.0 mi East 6.9 mph - N/A   Scattered Clouds
2:53 PM 80.1 °F 81.7 °F 64.0 °F 58% 30.14 in 10.0 mi ESE 12.7 mph - N/A   Scattered Clouds
3:53 PM 80.1 °F 81.7 °F 64.0 °F 58% 30.11 in 10.0 mi East 6.9 mph - N/A   Scattered Clouds
4:53 PM 82.0 °F 83.0 °F 62.1 °F 51% 30.09 in 10.0 mi ESE 10.4 mph - N/A   Scattered Clouds
5:53 PM 82.0 °F 83.1 °F 63.0 °F 52% 30.07 in 10.0 mi East 10.4 mph - N/A   Scattered Clouds
6:53 PM 81.0 °F 81.9 °F 62.1 °F 52% 30.06 in 10.0 mi ESE 8.1 mph - N/A   Mostly Cloudy
7:53 PM 75.0 °F - 64.9 °F 71% 30.08 in 10.0 mi ESE 5.8 mph - N/A   Mostly Cloudy
8:53 PM 73.0 °F - 66.0 °F 79% 30.09 in 10.0 mi ESE 5.8 mph - N/A   Mostly Cloudy
9:53 PM 71.1 °F - 66.0 °F 84% 30.11 in 10.0 mi ESE 5.8 mph - N/A   Scattered Clouds
10:53 PM 71.1 °F - 66.0 °F 84% 30.12 in 10.0 mi SE 9.2 mph - N/A   Mostly Cloudy
11:53 PM 70.0 °F - 66.0 °F 87% 30.13 in 10.0 mi SE 8.1 mph - N/A   Scattered Clouds